• In Uzbekistan
  • List of Countries
  • For 7 days
  • Water Temperature
  • Weather Map
  • Weather Widgets
  • user-avatar
    Login

    Hourly Weather Vinh

    Today, 29 February, Saturday

    Time Temperature Precipitation Wind Pressure Humidity
    00:00 +20°C° 0 mm 0 mps 748 mmHg 93%
    01:00 +20°C° 0 mm 0 mps 748 mmHg 93%
    02:00 +20°C° 0 mm 0 mps 748 mmHg 94%
    03:00 +20°C° 0 mm 0 mps 747 mmHg 94%
    04:00 +20°C° 0 mm 0 mps 747 mmHg 94%
    05:00 +20°C° 0 mm 0 mps 747 mmHg 94%
    06:00 +20°C° 0 mm 0 mps 748 mmHg 93%
    07:00 +21°C° 0 mm 0 mps 748 mmHg 93%
    08:00 +22°C° 0 mm 0 mps 748 mmHg 86%
    09:00 +26°C° 0 mm 1 mps 748 mmHg 79%
    10:00 +28°C° 0 mm 1 mps 748 mmHg 72%
    11:00 +28°C° 0 mm 1 mps 748 mmHg 70%
    12:00 +29°C° 0 mm 1 mps 747 mmHg 69%
    13:00 +29°C° 0 mm 2 mps 746 mmHg 67%
    14:00 +29°C° 0 mm 2 mps 746 mmHg 70%
    15:00 +29°C° 0 mm 2 mps 745 mmHg 73%
    16:00 +29°C° 0 mm 2 mps 744 mmHg 75%
    17:00 +27°C° 0 mm 2 mps 744 mmHg 82%
    18:00 +26°C° 0 mm 1 mps 745 mmHg 88%
    19:00 +23°C° 0 mm 0 mps 745 mmHg 94%
    20:00 +22°C° 0 mm 0 mps 746 mmHg 94%
    21:00 +22°C° 0 mm 0 mps 746 mmHg 94%
    22:00 +22°C° 0 mm 0 mps 747 mmHg 93%
    23:00 +22°C° 0 mm 0 mps 747 mmHg 93%

    Tomorrow, 1 March, Sunday

    Time Temperature Precipitation Wind Pressure Humidity
    00:00 +22°C° 0 mm 0 mps 747 mmHg 92%
    01:00 +22°C° 0 mm 0 mps 747 mmHg 92%
    02:00 +21°C° 0 mm 0 mps 746 mmHg 92%
    03:00 +21°C° 0 mm 0 mps 746 mmHg 92%
    04:00 +21°C° 0 mm 0 mps 746 mmHg 92%
    05:00 +21°C° 0 mm 0 mps 746 mmHg 91%
    06:00 +21°C° 0 mm 0 mps 747 mmHg 89%
    07:00 +22°C° 0 mm 0 mps 747 mmHg 88%
    08:00 +24°C° 0 mm 0 mps 747 mmHg 80%
    09:00 +28°C° 0 mm 1 mps 748 mmHg 72%
    10:00 +30°C° 0 mm 1 mps 748 mmHg 64%
    11:00 +30°C° 0 mm 1 mps 747 mmHg 63%
    12:00 +31°C° 0 mm 2 mps 746 mmHg 61%
    13:00 +32°C° 0 mm 2 mps 746 mmHg 59%
    14:00 +31°C° 0.1 mm 2 mps 745 mmHg 64%
    15:00 +30°C° 0.1 mm 2 mps 744 mmHg 69%
    16:00 +29°C° 0.1 mm 3 mps 744 mmHg 74%
    17:00 +28°C° 0.1 mm 2 mps 744 mmHg 80%
    18:00 +27°C° 0.1 mm 1 mps 745 mmHg 86%
    19:00 +25°C° 0.1 mm 1 mps 746 mmHg 91%
    20:00 +25°C° 0 mm 1 mps 746 mmHg 92%
    21:00 +25°C° 0 mm 1 mps 746 mmHg 92%
    22:00 +23°C° 0 mm 0 mps 747 mmHg 93%
    23:00 +23°C° 0 mm 0 mps 747 mmHg 93%

    Day after tomorrow, 2 March, Monday

    Time Temperature Precipitation Wind Pressure Humidity
    00:00 +23°C° 0 mm 0 mps 747 mmHg 93%
    01:00 +22°C° 0 mm 0 mps 746 mmHg 93%
    02:00 +22°C° 0 mm 0 mps 746 mmHg 93%
    03:00 +22°C° 0 mm 0 mps 746 mmHg 93%
    04:00 +22°C° 0 mm 0 mps 746 mmHg 93%
    05:00 +22°C° 0 mm 0 mps 746 mmHg 93%
    06:00 +24°C° 0 mm 1 mps 747 mmHg 92%
    07:00 +24°C° 0 mm 1 mps 747 mmHg 91%
    08:00 +25°C° 0 mm 1 mps 748 mmHg 86%
    09:00 +26°C° 0 mm 1 mps 748 mmHg 81%
    10:00 +27°C° 0 mm 1 mps 749 mmHg 76%
    11:00 +28°C° 0 mm 1 mps 748 mmHg 74%
    12:00 +28°C° 0 mm 1 mps 747 mmHg 72%
    13:00 +29°C° 0 mm 2 mps 747 mmHg 70%
    14:00 +29°C° 0 mm 2 mps 746 mmHg 72%
    15:00 +29°C° 0 mm 2 mps 746 mmHg 73%
    16:00 +29°C° 0 mm 2 mps 745 mmHg 75%
    17:00 +28°C° 0 mm 2 mps 746 mmHg 80%
    18:00 +26°C° 0 mm 1 mps 746 mmHg 86%
    19:00 +25°C° 0 mm 1 mps 746 mmHg 91%
    20:00 +25°C° 0 mm 1 mps 747 mmHg 92%
    21:00 +25°C° 0 mm 1 mps 747 mmHg 93%
    22:00 +22°C° 0 mm 0 mps 748 mmHg 94%
    23:00 +22°C° 0 mm 0 mps 748 mmHg 94%

    3 March, Tuesday

    Time Temperature Precipitation Wind Pressure Humidity
    00:00 +22°C° 0 mm 0 mps 747 mmHg 95%
    01:00 +22°C° 0 mm 0 mps 747 mmHg 95%
    02:00 +22°C° 0 mm 0 mps 747 mmHg 95%
    03:00 +21°C° 0 mm 0 mps 746 mmHg 94%
    04:00 +21°C° 0 mm 0 mps 746 mmHg 94%
    05:00 +22°C° 0 mm 0 mps 747 mmHg 93%
    06:00 +22°C° 0 mm 0 mps 747 mmHg 93%
    07:00 +22°C° 0 mm 0 mps 748 mmHg 92%
    08:00 +25°C° 0 mm 1 mps 748 mmHg 88%
    09:00 +26°C° 0 mm 1 mps 749 mmHg 83%
    10:00 +27°C° 0 mm 1 mps 749 mmHg 78%
    11:00 +27°C° 0.1 mm 1 mps 748 mmHg 78%
    12:00 +27°C° 0.1 mm 1 mps 748 mmHg 78%
    13:00 +27°C° 0.1 mm 2 mps 747 mmHg 78%
    14:00 +27°C° 0.4 mm 2 mps 746 mmHg 80%
    15:00 +27°C° 0.4 mm 2 mps 746 mmHg 82%
    16:00 +27°C° 0.4 mm 2 mps 746 mmHg 84%
    17:00 +26°C° 0.3 mm 2 mps 746 mmHg 87%
    18:00 +25°C° 0.3 mm 1 mps 746 mmHg 90%
    19:00 +24°C° 0.3 mm 1 mps 746 mmHg 92%
    20:00 +24°C° 0.5 mm 1 mps 747 mmHg 93%
    21:00 +24°C° 0.5 mm 1 mps 747 mmHg 94%
    22:00 +24°C° 0.5 mm 1 mps 748 mmHg 95%
    23:00 +23°C° 0.6 mm 1 mps 748 mmHg 95%

    4 March, Wednesday

    Time Temperature Precipitation Wind Pressure Humidity
    00:00 +23°C° 0.6 mm 1 mps 748 mmHg 96%
    01:00 +21°C° 0.6 mm 0 mps 747 mmHg 96%
    02:00 +20°C° 0.4 mm 0 mps 747 mmHg 96%
    03:00 +20°C° 0.4 mm 0 mps 747 mmHg 97%
    04:00 +20°C° 0.4 mm 0 mps 747 mmHg 97%
    05:00 +20°C° 0.5 mm 0 mps 747 mmHg 96%
    06:00 +20°C° 0.5 mm 0 mps 748 mmHg 96%
    07:00 +21°C° 0.5 mm 0 mps 749 mmHg 95%
    08:00 +21°C° 0.3 mm 0 mps 749 mmHg 94%
    09:00 +21°C° 0.3 mm 0 mps 750 mmHg 93%
    10:00 +23°C° 0.3 mm 1 mps 751 mmHg 92%
    11:00 +21°C° 0.3 mm 0 mps 750 mmHg 90%
    12:00 +21°C° 0.3 mm 0 mps 749 mmHg 89%
    13:00 +22°C° 0.3 mm 0 mps 749 mmHg 88%
    14:00 +24°C° 0.1 mm 1 mps 748 mmHg 86%
    15:00 +25°C° 0.1 mm 1 mps 747 mmHg 84%
    16:00 +26°C° 0.1 mm 2 mps 747 mmHg 82%
    17:00 +25°C° 0.1 mm 1 mps 747 mmHg 86%
    18:00 +24°C° 0.1 mm 1 mps 747 mmHg 91%
    19:00 +23°C° 0.1 mm 1 mps 747 mmHg 95%
    20:00 +23°C° 0 mm 1 mps 748 mmHg 95%
    21:00 +23°C° 0 mm 1 mps 749 mmHg 95%
    22:00 +20°C° 0 mm 0 mps 749 mmHg 95%
    23:00 +20°C° 0.4 mm 0 mps 749 mmHg 95%

    5 March, Thursday

    Time Temperature Precipitation Wind Pressure Humidity
    00:00 +22°C° 0.4 mm 1 mps 749 mmHg 96%
    01:00 +22°C° 0.4 mm 1 mps 749 mmHg 96%
    02:00 +22°C° 0.3 mm 1 mps 748 mmHg 96%
    03:00 +22°C° 0.3 mm 1 mps 748 mmHg 97%
    04:00 +22°C° 0.3 mm 1 mps 748 mmHg 97%
    05:00 +22°C° 0.2 mm 1 mps 748 mmHg 97%
    06:00 +22°C° 0.2 mm 1 mps 749 mmHg 97%
    07:00 +22°C° 0.2 mm 1 mps 749 mmHg 98%
    08:00 +23°C° 0.2 mm 1 mps 749 mmHg 96%
    09:00 +23°C° 0.2 mm 1 mps 750 mmHg 94%
    10:00 +24°C° 0.2 mm 1 mps 750 mmHg 92%
    11:00 +25°C° 0.5 mm 1 mps 750 mmHg 88%
    12:00 +26°C° 0.5 mm 1 mps 749 mmHg 83%
    13:00 +27°C° 0.5 mm 2 mps 748 mmHg 78%
    14:00 +27°C° 0.9 mm 2 mps 747 mmHg 80%
    15:00 +27°C° 0.9 mm 2 mps 747 mmHg 81%
    16:00 +27°C° 0.9 mm 2 mps 746 mmHg 82%
    17:00 +25°C° 0.3 mm 1 mps 747 mmHg 87%
    18:00 +24°C° 0.3 mm 1 mps 747 mmHg 91%
    19:00 +23°C° 0.3 mm 1 mps 747 mmHg 96%
    20:00 +23°C° 0 mm 1 mps 748 mmHg 96%
    21:00 +21°C° 0 mm 0 mps 748 mmHg 96%
    22:00 +21°C° 0 mm 0 mps 749 mmHg 96%
    23:00 +21°C° 0 mm 0 mps 748 mmHg 96%
    Show more